Powrót do katalogu

STARLINK-31869

AktywnyŁącznośćVLEO
NORAD 60196·PAYLOAD·🇺🇸 United States

Wystrzelony Jul 3, 2024 z Cape Canaveral Space Force Station

Loading…

Następne Przeloty (najbliższe 24 godziny)

TLE

ŚwieżeSource: CelesTrak SupGP

Epoka: Sep 14, 2026, 21:35 UTC

1 60196C 24124P   26257.89979167 -.00049851  00000+0 -16021-2 0  2570
2 60196  53.1569 162.1510 0001325  89.4560 340.2135 15.31747033    15

Śledź STARLINK-31869 w czasie rzeczywistym z AllMySat

Download on the App Store